owner,sensor,date,latitude,longitude,vertical_datum,direction_of_sea_water_velocity,sea_water_speed,upward_sea_water_velocity,qcFlag 
TABS,ioos:station:wmo:42047:1,2019-02-01T00:00:00Z,27.8966,-93.5973,2.0,348.7641073,18.27019431,-99999.0,'11111222,11111222,99999999' 
TABS,ioos:station:wmo:42047:1,2019-02-01T00:30:00Z,27.8966,-93.5973,2.0,357.1780618,19.90414027,-99999.0,'11111222,11111222,99999999' 
TABS,ioos:station:wmo:42047:1,2019-02-01T01:00:00Z,27.8966,-93.5973,2.0,356.1680793,21.09717043,-99999.0,'11111222,11111222,99999999' 
TABS,ioos:station:wmo:42047:1,2019-02-01T01:30:00Z,27.8966,-93.5973,2.0,348.2156652,22.96402621,-99999.0,'11111222,11111222,99999999' 
TABS,ioos:station:wmo:42047:1,2019-02-01T02:00:00Z,27.8966,-93.5973,2.0,4.394872895,21.79407718,-99999.0,'11111222,11111222,99999999' 
TABS,ioos:station:wmo:42047:1,2019-02-01T02:30:00Z,27.8966,-93.5973,2.0,358.7165729,19.19481701,-99999.0,'11111222,11111222,99999999' 
TABS,ioos:station:wmo:42047:1,2019-02-01T03:00:00Z,27.8966,-93.5973,2.0,350.1182265,24.23963696,-99999.0,'11111222,11111222,99999999' 
TABS,ioos:station:wmo:42047:1,2019-02-01T03:30:00Z,27.8966,-93.5973,2.0,337.0147814,24.7120416,-99999.0,'11111222,11111222,99999999' 
TABS,ioos:station:wmo:42047:1,2019-02-01T04:00:00Z,27.8966,-93.5973,2.0,350.1498503,28.64224852,-99999.0,'11111222,11111222,99999999' 
TABS,ioos:station:wmo:42047:1,2019-02-01T04:30:00Z,27.8966,-93.5973,2.0,350.470416,26.51593106,-99999.0,'11111222,11111222,99999999' 
TABS,ioos:station:wmo:42047:1,2019-02-01T05:00:00Z,27.8966,-93.5973,2.0,346.5979789,27.18020603,-99999.0,'11111222,11111222,99999999' 
TABS,ioos:station:wmo:42047:1,2019-02-01T05:30:00Z,27.8966,-93.5973,2.0,349.3188885,26.81461169,-99999.0,'11111222,11111222,99999999' 
TABS,ioos:station:wmo:42047:1,2019-02-01T06:00:00Z,27.8966,-93.5973,2.0,353.7972172,28.13472054,-99999.0,'11111222,11111222,99999999' 
TABS,ioos:station:wmo:42047:1,2019-02-01T06:30:00Z,27.8966,-93.5973,2.0,340.9894885,27.69030155,-99999.0,'11111222,11111222,99999999' 
TABS,ioos:station:wmo:42047:1,2019-02-01T07:00:00Z,27.8966,-93.5973,2.0,326.1655507,27.46052075,-99999.0,'11111222,11111222,99999999' 
TABS,ioos:station:wmo:42047:1,2019-02-01T07:30:00Z,27.8966,-93.5973,2.0,333.4697733,29.66368318,-99999.0,'11111222,11111222,99999999' 
TABS,ioos:station:wmo:42047:1,2019-02-01T08:00:00Z,27.8966,-93.5973,2.0,336.3243771,28.21479222,-99999.0,'11111222,11111222,99999999' 
TABS,ioos:station:wmo:42047:1,2019-02-01T08:30:00Z,27.8966,-93.5973,2.0,351.6696934,28.29858654,-99999.0,'11111222,11111222,99999999' 
TABS,ioos:station:wmo:42047:1,2019-02-01T09:00:00Z,27.8966,-93.5973,2.0,345.6484347,31.26574164,-99999.0,'11111222,11111222,99999999' 
TABS,ioos:station:wmo:42047:1,2019-02-01T09:30:00Z,27.8966,-93.5973,2.0,332.6099635,38.19153047,-99999.0,'11111222,11111222,99999999' 
TABS,ioos:station:wmo:42047:1,2019-02-01T10:00:00Z,27.8966,-93.5973,2.0,354.0030743,35.41381651,-99999.0,'11111222,11111222,99999999' 
TABS,ioos:station:wmo:42047:1,2019-02-01T10:30:00Z,27.8966,-93.5973,2.0,339.5225883,38.50306222,-99999.0,'11111222,11111222,99999999' 
TABS,ioos:station:wmo:42047:1,2019-02-01T11:00:00Z,27.8966,-93.5973,2.0,336.8617305,38.83389885,-99999.0,'11111222,11111222,99999999' 
TABS,ioos:station:wmo:42047:1,2019-02-01T11:30:00Z,27.8966,-93.5973,2.0,341.435151,38.97833501,-99999.0,'11111222,11111222,99999999' 
TABS,ioos:station:wmo:42047:1,2019-02-01T12:00:00Z,27.8966,-93.5973,2.0,336.744134,41.83950287,-99999.0,'11111222,11111222,99999999' 
TABS,ioos:station:wmo:42047:1,2019-02-01T12:30:00Z,27.8966,-93.5973,2.0,354.9172095,33.52182871,-99999.0,'11111222,11111222,99999999' 
TABS,ioos:station:wmo:42047:1,2019-02-01T13:00:00Z,27.8966,-93.5973,2.0,347.0434059,39.78290211,-99999.0,'11111222,11111222,99999999' 
TABS,ioos:station:wmo:42047:1,2019-02-01T13:30:00Z,27.8966,-93.5973,2.0,343.482824,38.93679237,-99999.0,'11111222,11111222,99999999' 
TABS,ioos:station:wmo:42047:1,2019-02-01T14:00:00Z,27.8966,-93.5973,2.0,358.3430951,44.60865611,-99999.0,'11111222,11111222,99999999' 
TABS,ioos:station:wmo:42047:1,2019-02-01T14:30:00Z,27.8966,-93.5973,2.0,351.747144,38.87257774,-99999.0,'11111222,11111222,99999999' 
TABS,ioos:station:wmo:42047:1,2019-02-01T15:00:00Z,27.8966,-93.5973,2.0,350.4088508,40.87133592,-99999.0,'11111222,11111222,99999999' 
TABS,ioos:station:wmo:42047:1,2019-02-01T15:30:00Z,27.8966,-93.5973,2.0,352.0271737,42.82396175,-99999.0,'11111222,11111222,99999999' 
TABS,ioos:station:wmo:42047:1,2019-02-01T16:00:00Z,27.8966,-93.5973,2.0,0.113303123,40.53007895,-99999.0,'11111222,11111222,99999999' 
TABS,ioos:station:wmo:42047:1,2019-02-01T16:30:00Z,27.8966,-93.5973,2.0,1.692414833,40.29757437,-99999.0,'11111222,11111222,99999999' 
TABS,ioos:station:wmo:42047:1,2019-02-01T17:00:00Z,27.8966,-93.5973,2.0,357.7733921,42.72226235,-99999.0,'11111222,11111222,99999999' 
TABS,ioos:station:wmo:42047:1,2019-02-01T17:30:00Z,27.8966,-93.5973,2.0,5.75488018,37.49898265,-99999.0,'11111222,11111222,99999999' 
TABS,ioos:station:wmo:42047:1,2019-02-01T18:00:00Z,27.8966,-93.5973,2.0,1.667669423,38.14615315,-99999.0,'11111222,11111222,99999999' 
TABS,ioos:station:wmo:42047:1,2019-02-01T18:30:00Z,27.8966,-93.5973,2.0,9.485717596,36.52945798,-99999.0,'11111222,11111222,99999999' 
TABS,ioos:station:wmo:42047:1,2019-02-01T19:00:00Z,27.8966,-93.5973,2.0,10.08352834,36.55461804,-99999.0,'11111222,11111222,99999999' 
TABS,ioos:station:wmo:42047:1,2019-02-01T19:30:00Z,27.8966,-93.5973,2.0,14.09491161,33.26135295,-99999.0,'11111222,11111222,99999999' 
TABS,ioos:station:wmo:42047:1,2019-02-01T20:00:00Z,27.8966,-93.5973,2.0,18.06666051,31.47163803,-99999.0,'11111222,11111222,99999999' 
TABS,ioos:station:wmo:42047:1,2019-02-01T20:30:00Z,27.8966,-93.5973,2.0,17.68619614,29.03218903,-99999.0,'11111222,11111222,99999999' 
TABS,ioos:station:wmo:42047:1,2019-02-01T21:00:00Z,27.8966,-93.5973,2.0,24.41681307,27.79597453,-99999.0,'11111222,11111222,99999999' 
TABS,ioos:station:wmo:42047:1,2019-02-01T21:30:00Z,27.8966,-93.5973,2.0,22.38029318,28.31255552,-99999.0,'11111222,11111222,99999999' 
TABS,ioos:station:wmo:42047:1,2019-02-01T22:00:00Z,27.8966,-93.5973,2.0,24.51943262,25.18075853,-99999.0,'11111222,11111222,99999999' 
TABS,ioos:station:wmo:42047:1,2019-02-01T22:30:00Z,27.8966,-93.5973,2.0,32.64510921,22.50515719,-99999.0,'11111222,11111222,99999999' 
TABS,ioos:station:wmo:42047:1,2019-02-01T23:00:00Z,27.8966,-93.5973,2.0,24.8052725,16.0178026,-99999.0,'11111222,11111222,99999999' 
TABS,ioos:station:wmo:42047:1,2019-02-01T23:30:00Z,27.8966,-93.5973,2.0,41.28406092,13.74677417,-99999.0,'11111222,11111222,99999999' 
TABS,ioos:station:wmo:42047:1,2019-02-02T00:00:00Z,27.8966,-93.5973,2.0,23.77502018,9.922015924,-99999.0,'11133222,11111222,99999999' 
TABS,ioos:station:wmo:42047:1,2019-02-02T00:30:00Z,27.8966,-93.5973,2.0,350.562045,7.80566461,-99999.0,'11133222,11111222,99999999' 
TABS,ioos:station:wmo:42047:1,2019-02-02T01:00:00Z,27.8966,-93.5973,2.0,348.1557032,7.35663646,-99999.0,'11133222,11111222,99999999' 
TABS,ioos:station:wmo:42047:1,2019-02-02T01:30:00Z,27.8966,-93.5973,2.0,350.8986502,6.00561404,-99999.0,'11133222,11111222,99999999' 
TABS,ioos:station:wmo:42047:1,2019-02-02T02:00:00Z,27.8966,-93.5973,2.0,346.5422914,6.488158444,-99999.0,'11133222,11111222,99999999' 
TABS,ioos:station:wmo:42047:1,2019-02-02T02:30:00Z,27.8966,-93.5973,2.0,309.3719627,4.90267274,-99999.0,'11133222,11111222,99999999' 
TABS,ioos:station:wmo:42047:1,2019-02-02T03:00:00Z,27.8966,-93.5973,2.0,334.2879602,8.113353191,-99999.0,'11133222,11111222,99999999' 
TABS,ioos:station:wmo:42047:1,2019-02-02T03:30:00Z,27.8966,-93.5973,2.0,290.7627425,7.475466541,-99999.0,'11133222,11111222,99999999' 
TABS,ioos:station:wmo:42047:1,2019-02-02T04:00:00Z,27.8966,-93.5973,2.0,316.2245757,9.597629916,-99999.0,'11133222,11111222,99999999' 
TABS,ioos:station:wmo:42047:1,2019-02-02T04:30:00Z,27.8966,-93.5973,2.0,298.0752346,14.08764707,-99999.0,'11111222,11111222,99999999' 
TABS,ioos:station:wmo:42047:1,2019-02-02T05:00:00Z,27.8966,-93.5973,2.0,296.9927042,13.79245083,-99999.0,'11111222,11111222,99999999' 
TABS,ioos:station:wmo:42047:1,2019-02-02T05:30:00Z,27.8966,-93.5973,2.0,310.3725978,14.11035435,-99999.0,'11111222,11111222,99999999' 
TABS,ioos:station:wmo:42047:1,2019-02-02T06:00:00Z,27.8966,-93.5973,2.0,305.1750616,16.69930837,-99999.0,'11111222,11111222,99999999' 
TABS,ioos:station:wmo:42047:1,2019-02-02T06:30:00Z,27.8966,-93.5973,2.0,298.7524623,17.10943892,-99999.0,'11111222,11111222,99999999' 
TABS,ioos:station:wmo:42047:1,2019-02-02T07:00:00Z,27.8966,-93.5973,2.0,305.2699773,16.40039634,-99999.0,'11111222,11111222,99999999' 
TABS,ioos:station:wmo:42047:1,2019-02-02T07:30:00Z,27.8966,-93.5973,2.0,302.4715373,20.6006796,-99999.0,'11111222,11111222,99999999' 
TABS,ioos:station:wmo:42047:1,2019-02-02T08:00:00Z,27.8966,-93.5973,2.0,305.243979,19.02766407,-99999.0,'11111222,11111222,99999999' 
TABS,ioos:station:wmo:42047:1,2019-02-02T08:30:00Z,27.8966,-93.5973,2.0,303.1198949,20.33354371,-99999.0,'11111222,11111222,99999999' 
TABS,ioos:station:wmo:42047:1,2019-02-02T09:00:00Z,27.8966,-93.5973,2.0,302.7588552,22.17707149,-99999.0,'11111222,11111222,99999999' 
TABS,ioos:station:wmo:42047:1,2019-02-02T09:30:00Z,27.8966,-93.5973,2.0,302.1933946,20.0648075,-99999.0,'11111222,11111222,99999999' 
TABS,ioos:station:wmo:42047:1,2019-02-02T10:00:00Z,27.8966,-93.5973,2.0,309.6047159,19.3260058,-99999.0,'11111222,11111222,99999999' 
TABS,ioos:station:wmo:42047:1,2019-02-02T10:30:00Z,27.8966,-93.5973,2.0,315.376705,19.37514387,-99999.0,'11111222,11111222,99999999' 
TABS,ioos:station:wmo:42047:1,2019-02-02T11:00:00Z,27.8966,-93.5973,2.0,323.8225698,21.85359467,-99999.0,'11111222,11111222,99999999' 
TABS,ioos:station:wmo:42047:1,2019-02-02T11:30:00Z,27.8966,-93.5973,2.0,319.5736046,25.98405088,-99999.0,'11111222,11111222,99999999' 
TABS,ioos:station:wmo:42047:1,2019-02-02T12:00:00Z,27.8966,-93.5973,2.0,326.7189828,27.99088423,-99999.0,'11111222,11111222,99999999' 
TABS,ioos:station:wmo:42047:1,2019-02-02T12:30:00Z,27.8966,-93.5973,2.0,329.3134594,13.12837004,-99999.0,'11111222,11111222,99999999' 
TABS,ioos:station:wmo:42047:1,2019-02-02T13:00:00Z,27.8966,-93.5973,2.0,338.2821934,31.91549154,-99999.0,'11111222,11111222,99999999' 
TABS,ioos:station:wmo:42047:1,2019-02-02T13:30:00Z,27.8966,-93.5973,2.0,353.7578106,35.59102836,-99999.0,'11111222,11111222,99999999' 
TABS,ioos:station:wmo:42047:1,2019-02-02T14:00:00Z,27.8966,-93.5973,2.0,347.9457203,38.78524075,-99999.0,'11111222,11111222,99999999' 
TABS,ioos:station:wmo:42047:1,2019-02-02T14:30:00Z,27.8966,-93.5973,2.0,344.7512691,40.91037155,-99999.0,'11111222,11111222,99999999' 
TABS,ioos:station:wmo:42047:1,2019-02-02T15:00:00Z,27.8966,-93.5973,2.0,343.2623219,39.72298075,-99999.0,'11111222,11111222,99999999' 
TABS,ioos:station:wmo:42047:1,2019-02-02T15:30:00Z,27.8966,-93.5973,2.0,351.4264527,40.17901193,-99999.0,'11111222,11111222,99999999' 
TABS,ioos:station:wmo:42047:1,2019-02-02T16:00:00Z,27.8966,-93.5973,2.0,345.039721,38.03938617,-99999.0,'11111222,11111222,99999999' 
TABS,ioos:station:wmo:42047:1,2019-02-02T16:30:00Z,27.8966,-93.5973,2.0,342.7636115,35.23231613,-99999.0,'11111222,11111222,99999999' 
TABS,ioos:station:wmo:42047:1,2019-02-02T17:00:00Z,27.8966,-93.5973,2.0,355.8065572,36.64812274,-99999.0,'11111222,11111222,99999999' 
TABS,ioos:station:wmo:42047:1,2019-02-02T17:30:00Z,27.8966,-93.5973,2.0,348.6711377,35.17539197,-99999.0,'11111222,11111222,99999999' 
TABS,ioos:station:wmo:42047:1,2019-02-02T18:00:00Z,27.8966,-93.5973,2.0,343.7723415,37.60840598,-99999.0,'11111222,11111222,99999999' 
TABS,ioos:station:wmo:42047:1,2019-02-02T18:30:00Z,27.8966,-93.5973,2.0,347.4383848,37.61032438,-99999.0,'11111222,11111222,99999999' 
TABS,ioos:station:wmo:42047:1,2019-02-02T19:00:00Z,27.8966,-93.5973,2.0,346.3587673,33.79329075,-99999.0,'11111222,11111222,99999999' 
TABS,ioos:station:wmo:42047:1,2019-02-02T19:30:00Z,27.8966,-93.5973,2.0,346.0029924,35.638193,-99999.0,'11111222,11111222,99999999' 
TABS,ioos:station:wmo:42047:1,2019-02-02T20:00:00Z,27.8966,-93.5973,2.0,348.2742,34.29573297,-99999.0,'11111222,11111222,99999999' 
TABS,ioos:station:wmo:42047:1,2019-02-02T20:30:00Z,27.8966,-93.5973,2.0,346.1551572,34.89379458,-99999.0,'11111222,11111222,99999999' 
TABS,ioos:station:wmo:42047:1,2019-02-02T21:00:00Z,27.8966,-93.5973,2.0,354.9583196,30.60843348,-99999.0,'11111222,11111222,99999999' 
TABS,ioos:station:wmo:42047:1,2019-02-02T21:30:00Z,27.8966,-93.5973,2.0,346.4898102,28.80716925,-99999.0,'11111222,11111222,99999999' 
TABS,ioos:station:wmo:42047:1,2019-02-02T22:00:00Z,27.8966,-93.5973,2.0,351.8858375,25.78818528,-99999.0,'11111222,11111222,99999999' 
TABS,ioos:station:wmo:42047:1,2019-02-02T22:30:00Z,27.8966,-93.5973,2.0,351.4988165,25.09574665,-99999.0,'11111222,11111222,99999999' 
TABS,ioos:station:wmo:42047:1,2019-02-02T23:00:00Z,27.8966,-93.5973,2.0,353.453935,21.49011401,-99999.0,'11111222,11111222,99999999' 
TABS,ioos:station:wmo:42047:1,2019-02-02T23:30:00Z,27.8966,-93.5973,2.0,351.7218549,20.76638149,-99999.0,'11111222,11111222,99999999' 
TABS,ioos:station:wmo:42047:1,2019-02-03T00:00:00Z,27.8966,-93.5973,2.0,349.9728285,20.50319487,-99999.0,'11111222,11111222,99999999' 
TABS,ioos:station:wmo:42047:1,2019-02-03T00:30:00Z,27.8966,-93.5973,2.0,357.6727008,15.51279794,-99999.0,'11111222,11111222,99999999' 
TABS,ioos:station:wmo:42047:1,2019-02-03T01:00:00Z,27.8966,-93.5973,2.0,348.473206,18.11537745,-99999.0,'11111222,11111222,99999999' 
TABS,ioos:station:wmo:42047:1,2019-02-03T01:30:00Z,27.8966,-93.5973,2.0,341.4633553,10.66321715,-99999.0,'11111222,11111222,99999999' 
TABS,ioos:station:wmo:42047:1,2019-02-03T02:00:00Z,27.8966,-93.5973,2.0,332.6927708,10.35386401,-99999.0,'11111222,11111222,99999999' 
TABS,ioos:station:wmo:42047:1,2019-02-03T02:30:00Z,27.8966,-93.5973,2.0,358.3877562,7.462955179,-99999.0,'11133222,11111222,99999999' 
TABS,ioos:station:wmo:42047:1,2019-02-03T03:00:00Z,27.8966,-93.5973,2.0,334.3941842,8.283556,-99999.0,'11133222,11111222,99999999' 
TABS,ioos:station:wmo:42047:1,2019-02-03T03:30:00Z,27.8966,-93.5973,2.0,325.7088901,9.513632324,-99999.0,'11133222,11111222,99999999' 
TABS,ioos:station:wmo:42047:1,2019-02-03T04:00:00Z,27.8966,-93.5973,2.0,325.1067087,8.583105499,-99999.0,'11133222,11111222,99999999' 
TABS,ioos:station:wmo:42047:1,2019-02-03T04:30:00Z,27.8966,-93.5973,2.0,326.8722812,8.76468482,-99999.0,'11133222,11111222,99999999' 
TABS,ioos:station:wmo:42047:1,2019-02-03T05:00:00Z,27.8966,-93.5973,2.0,312.5201337,7.51651515,-99999.0,'11133222,11111222,99999999' 
TABS,ioos:station:wmo:42047:1,2019-02-03T05:30:00Z,27.8966,-93.5973,2.0,318.7725905,9.028100575,-99999.0,'11133222,11111222,99999999' 
TABS,ioos:station:wmo:42047:1,2019-02-03T06:00:00Z,27.8966,-93.5973,2.0,303.8191224,8.642250864,-99999.0,'11133222,11111222,99999999' 
TABS,ioos:station:wmo:42047:1,2019-02-03T06:30:00Z,27.8966,-93.5973,2.0,288.4353266,9.803060747,-99999.0,'11133222,11111222,99999999' 
TABS,ioos:station:wmo:42047:1,2019-02-03T07:00:00Z,27.8966,-93.5973,2.0,292.9152475,10.60706368,-99999.0,'11111222,11111222,99999999' 
TABS,ioos:station:wmo:42047:1,2019-02-03T07:30:00Z,27.8966,-93.5973,2.0,294.9631524,12.15554606,-99999.0,'11111222,11111222,99999999' 
TABS,ioos:station:wmo:42047:1,2019-02-03T08:00:00Z,27.8966,-93.5973,2.0,289.6037722,10.70021028,-99999.0,'11111222,11111222,99999999' 
TABS,ioos:station:wmo:42047:1,2019-02-03T08:30:00Z,27.8966,-93.5973,2.0,285.2555039,12.42791213,-99999.0,'11111222,11111222,99999999' 
TABS,ioos:station:wmo:42047:1,2019-02-03T09:00:00Z,27.8966,-93.5973,2.0,293.0604304,17.9220674,-99999.0,'11111222,11111222,99999999' 
TABS,ioos:station:wmo:42047:1,2019-02-03T09:30:00Z,27.8966,-93.5973,2.0,274.6413032,17.05591979,-99999.0,'11111222,11111222,99999999' 
TABS,ioos:station:wmo:42047:1,2019-02-03T10:00:00Z,27.8966,-93.5973,2.0,281.3307048,16.54239705,-99999.0,'11111222,11111222,99999999' 
TABS,ioos:station:wmo:42047:1,2019-02-03T10:30:00Z,27.8966,-93.5973,2.0,292.2306423,14.14109614,-99999.0,'11111222,11111222,99999999' 
TABS,ioos:station:wmo:42047:1,2019-02-03T11:00:00Z,27.8966,-93.5973,2.0,298.6894673,12.79015246,-99999.0,'11111222,11111222,99999999' 
TABS,ioos:station:wmo:42047:1,2019-02-03T11:30:00Z,27.8966,-93.5973,2.0,296.3824224,12.60254339,-99999.0,'11111222,11111222,99999999' 
TABS,ioos:station:wmo:42047:1,2019-02-03T12:00:00Z,27.8966,-93.5973,2.0,285.2034853,17.38855946,-99999.0,'11111222,11111222,99999999' 
TABS,ioos:station:wmo:42047:1,2019-02-03T12:30:00Z,27.8966,-93.5973,2.0,299.0619062,8.008251994,-99999.0,'11133222,11111222,99999999' 
TABS,ioos:station:wmo:42047:1,2019-02-03T13:00:00Z,27.8966,-93.5973,2.0,287.1881584,21.79325584,-99999.0,'11111222,11111222,99999999' 
TABS,ioos:station:wmo:42047:1,2019-02-03T13:30:00Z,27.8966,-93.5973,2.0,299.2742028,21.57533082,-99999.0,'11111222,11111222,99999999' 
TABS,ioos:station:wmo:42047:1,2019-02-03T14:00:00Z,27.8966,-93.5973,2.0,311.2345038,17.8718214,-99999.0,'11111222,11111222,99999999' 
TABS,ioos:station:wmo:42047:1,2019-02-03T14:30:00Z,27.8966,-93.5973,2.0,307.9514058,17.17105704,-99999.0,'11111222,11111222,99999999' 
TABS,ioos:station:wmo:42047:1,2019-02-03T15:00:00Z,27.8966,-93.5973,2.0,313.1463519,20.54513568,-99999.0,'11111222,11111222,99999999' 
TABS,ioos:station:wmo:42047:1,2019-02-03T15:30:00Z,27.8966,-93.5973,2.0,343.1661978,23.20436381,-99999.0,'11111222,11111222,99999999' 
TABS,ioos:station:wmo:42047:1,2019-02-03T16:00:00Z,27.8966,-93.5973,2.0,330.3895726,21.71606088,-99999.0,'11111222,11111222,99999999' 
TABS,ioos:station:wmo:42047:1,2019-02-03T16:30:00Z,27.8966,-93.5973,2.0,346.8520888,22.37659938,-99999.0,'11111222,11111222,99999999' 
TABS,ioos:station:wmo:42047:1,2019-02-03T17:00:00Z,27.8966,-93.5973,2.0,338.3040201,25.29174767,-99999.0,'11111222,11111222,99999999' 
TABS,ioos:station:wmo:42047:1,2019-02-03T17:30:00Z,27.8966,-93.5973,2.0,333.7288869,25.3036776,-99999.0,'11111222,11111222,99999999' 
TABS,ioos:station:wmo:42047:1,2019-02-03T18:00:00Z,27.8966,-93.5973,2.0,330.3261499,22.09804516,-99999.0,'11111222,11111222,99999999' 
TABS,ioos:station:wmo:42047:1,2019-02-03T18:30:00Z,27.8966,-93.5973,2.0,343.1025664,21.57133515,-99999.0,'11111222,11111222,99999999' 
TABS,ioos:station:wmo:42047:1,2019-02-03T19:00:00Z,27.8966,-93.5973,2.0,333.8914911,19.65566076,-99999.0,'11111222,11111222,99999999' 
TABS,ioos:station:wmo:42047:1,2019-02-03T19:30:00Z,27.8966,-93.5973,2.0,339.006504,20.68294466,-99999.0,'11111222,11111222,99999999' 
TABS,ioos:station:wmo:42047:1,2019-02-03T20:00:00Z,27.8966,-93.5973,2.0,332.5752904,20.5607247,-99999.0,'11111222,11111222,99999999' 
TABS,ioos:station:wmo:42047:1,2019-02-03T20:30:00Z,27.8966,-93.5973,2.0,326.0444739,20.92906352,-99999.0,'11111222,11111222,99999999' 
TABS,ioos:station:wmo:42047:1,2019-02-03T21:00:00Z,27.8966,-93.5973,2.0,328.6034781,21.55627287,-99999.0,'11111222,11111222,99999999' 
TABS,ioos:station:wmo:42047:1,2019-02-03T21:30:00Z,27.8966,-93.5973,2.0,338.1024794,25.39201646,-99999.0,'11111222,11111222,99999999' 
TABS,ioos:station:wmo:42047:1,2019-02-03T22:00:00Z,27.8966,-93.5973,2.0,334.4768456,25.83085364,-99999.0,'11111222,11111222,99999999' 
TABS,ioos:station:wmo:42047:1,2019-02-03T22:30:00Z,27.8966,-93.5973,2.0,347.5107564,26.86575888,-99999.0,'11111222,11111222,99999999' 
TABS,ioos:station:wmo:42047:1,2019-02-03T23:00:00Z,27.8966,-93.5973,2.0,359.5460076,26.49083238,-99999.0,'11111222,11144222,99999999' 
TABS,ioos:station:wmo:42047:1,2019-02-03T23:30:00Z,27.8966,-93.5973,2.0,6.557425707,23.03066,-99999.0,'11111222,11111222,99999999' 
TABS,ioos:station:wmo:42047:1,2019-02-04T00:00:00Z,27.8966,-93.5973,2.0,17.05651304,19.97872869,-99999.0,'11111222,11111222,99999999' 
TABS,ioos:station:wmo:42047:1,2019-02-04T00:30:00Z,27.8966,-93.5973,2.0,15.39572371,11.45090389,-99999.0,'11111222,11111222,99999999' 
TABS,ioos:station:wmo:42047:1,2019-02-04T01:00:00Z,27.8966,-93.5973,2.0,3.213546585,18.01832956,-99999.0,'11111222,11111222,99999999' 
TABS,ioos:station:wmo:42047:1,2019-02-04T01:30:00Z,27.8966,-93.5973,2.0,354.6872727,8.315726066,-99999.0,'11133222,11111222,99999999' 
TABS,ioos:station:wmo:42047:1,2019-02-04T02:00:00Z,27.8966,-93.5973,2.0,340.8895028,9.65194281,-99999.0,'11133222,11111222,99999999' 
TABS,ioos:station:wmo:42047:1,2019-02-04T02:30:00Z,27.8966,-93.5973,2.0,359.8814632,9.650020725,-99999.0,'11133222,11144222,99999999' 
TABS,ioos:station:wmo:42047:1,2019-02-04T03:00:00Z,27.8966,-93.5973,2.0,11.23901247,7.901525169,-99999.0,'11133222,11111222,99999999' 
TABS,ioos:station:wmo:42047:1,2019-02-04T03:30:00Z,27.8966,-93.5973,2.0,10.6198409,7.976622092,-99999.0,'11133222,11111222,99999999' 
TABS,ioos:station:wmo:42047:1,2019-02-04T04:00:00Z,27.8966,-93.5973,2.0,2.376875769,7.716637869,-99999.0,'11133222,11111222,99999999' 
TABS,ioos:station:wmo:42047:1,2019-02-04T04:30:00Z,27.8966,-93.5973,2.0,5.79784527,8.513548027,-99999.0,'11133222,11111222,99999999' 
TABS,ioos:station:wmo:42047:1,2019-02-04T05:00:00Z,27.8966,-93.5973,2.0,355.8916643,7.118293335,-99999.0,'11133222,11111222,99999999' 
TABS,ioos:station:wmo:42047:1,2019-02-04T05:30:00Z,27.8966,-93.5973,2.0,353.5107241,8.051589905,-99999.0,'11133222,11111222,99999999' 
TABS,ioos:station:wmo:42047:1,2019-02-04T06:00:00Z,27.8966,-93.5973,2.0,4.243403294,6.217041097,-99999.0,'11133222,11111222,99999999' 
TABS,ioos:station:wmo:42047:1,2019-02-04T06:30:00Z,27.8966,-93.5973,2.0,356.547534,7.804165554,-99999.0,'11133222,11111222,99999999' 
TABS,ioos:station:wmo:42047:1,2019-02-04T07:00:00Z,27.8966,-93.5973,2.0,353.6840367,5.272001517,-99999.0,'11133222,11111222,99999999' 
TABS,ioos:station:wmo:42047:1,2019-02-04T07:30:00Z,27.8966,-93.5973,2.0,350.2656594,6.919631493,-99999.0,'11133222,11111222,99999999' 
TABS,ioos:station:wmo:42047:1,2019-02-04T08:00:00Z,27.8966,-93.5973,2.0,358.2195722,7.723729669,-99999.0,'11133222,11111222,99999999' 
TABS,ioos:station:wmo:42047:1,2019-02-04T08:30:00Z,27.8966,-93.5973,2.0,347.3495482,6.118537407,-99999.0,'11133222,11111222,99999999' 
TABS,ioos:station:wmo:42047:1,2019-02-04T09:00:00Z,27.8966,-93.5973,2.0,346.4420426,7.848726011,-99999.0,'11133222,11111222,99999999' 
TABS,ioos:station:wmo:42047:1,2019-02-04T09:30:00Z,27.8966,-93.5973,2.0,331.1894841,6.162864594,-99999.0,'11133222,11111222,99999999' 
TABS,ioos:station:wmo:42047:1,2019-02-04T10:00:00Z,27.8966,-93.5973,2.0,328.1224685,6.66528319,-99999.0,'11133222,11111222,99999999' 
TABS,ioos:station:wmo:42047:1,2019-02-04T10:30:00Z,27.8966,-93.5973,2.0,354.5894428,5.514571606,-99999.0,'11133222,11111222,99999999' 
TABS,ioos:station:wmo:42047:1,2019-02-04T11:00:00Z,27.8966,-93.5973,2.0,345.5794711,4.33663464,-99999.0,'11133222,11111222,99999999' 
TABS,ioos:station:wmo:42047:1,2019-02-04T11:30:00Z,27.8966,-93.5973,2.0,352.487187,6.959748559,-99999.0,'11133222,11111222,99999999' 
TABS,ioos:station:wmo:42047:1,2019-02-04T12:00:00Z,27.8966,-93.5973,2.0,9.205528736,8.063851437,-99999.0,'11133222,11111222,99999999' 
TABS,ioos:station:wmo:42047:1,2019-02-04T12:30:00Z,27.8966,-93.5973,2.0,346.6468715,4.070036855,-99999.0,'11133222,11111222,99999999' 
TABS,ioos:station:wmo:42047:1,2019-02-04T13:00:00Z,27.8966,-93.5973,2.0,356.5271437,10.72970643,-99999.0,'11111222,11111222,99999999' 
TABS,ioos:station:wmo:42047:1,2019-02-04T13:30:00Z,27.8966,-93.5973,2.0,345.1623042,7.106989517,-99999.0,'11133222,11111222,99999999' 
TABS,ioos:station:wmo:42047:1,2019-02-04T14:00:00Z,27.8966,-93.5973,2.0,359.3636184,11.7007222,-99999.0,'11111222,11144222,99999999' 
TABS,ioos:station:wmo:42047:1,2019-02-04T14:30:00Z,27.8966,-93.5973,2.0,352.3088802,9.788059052,-99999.0,'11133222,11111222,99999999' 
TABS,ioos:station:wmo:42047:1,2019-02-04T15:00:00Z,27.8966,-93.5973,2.0,336.5177405,11.39359908,-99999.0,'11111222,11111222,99999999' 
TABS,ioos:station:wmo:42047:1,2019-02-04T15:30:00Z,27.8966,-93.5973,2.0,353.4894938,10.75939125,-99999.0,'11111222,11111222,99999999' 
TABS,ioos:station:wmo:42047:1,2019-02-04T16:00:00Z,27.8966,-93.5973,2.0,355.0161071,13.81222647,-99999.0,'11111222,11111222,99999999' 